Weather History for Medicine Lodge, KS

Change the Weather History Date:

Monday, November 19, 2012

  Actual Average Record
Temperature  
Mean Temperature 58 °F 44 °F  
Max Temperature 74 °F 56 °F 84 °F (2007)
Min Temperature 41 °F 31 °F 11 °F (1921)
Degree Days  
Heating Degree Days 7 21  
Month to date heating degree days 247 323  
Since 1 July heating degree days 528 592  
Cooling Degree Days 0 0  
Month to date cooling degree days 2 0  
Year to date cooling degree days 2258 1769  
Growing Degree Days 7 (Base 50)    
Moisture  
Dew Point 41 °F    
Average Humidity 58    
Maximum Humidity 86    
Minimum Humidity 29    
Precipitation  
Precipitation 0.00 in 0.03 in 1.16 in (1992)
Month to date precipitation 0.98 0.69  
Year to date precipitation 17.92 25.98  
Snow  
Snow 0.00 in 0.00 in - ()
Month to date snowfall 0.0 0.0  
Since 1 July snowfall 0.0 0.0  
Since 1 September snowfall 0.0 0.0  
Snow Depth 0.00 in    
Sea Level Pressure  
Sea Level Pressure 30.10 in    
Wind  
Wind Speed 4 mph (ENE)    
Max Wind Speed 12 mph    
Max Gust Speed 16 mph    
T = Trace of Precipitation, MM = Missing Value Source: NWS Daily Summary

Daily Weather History Graph

Daily Weather History Graph

Search for Another Location

Airport:

Trip Planner

Search our weather history database for the weather conditions in past years. The results will help you decide how hot, cold, wet, or windy it might be!

Date:

Astronomy

Nov. 19, 2012 Rise Set
Actual Time 7:18 AM CST 5:21 PM CST
Civil Twilight 6:50 AM CST 5:49 PM CST
Nautical Twilight 6:18 AM CST 6:20 PM CST
Astronomical Twilight 5:47 AM CST 6:51 PM CST
Moon 12:24 PM CST (11/19) 11:46 PM CST (11/19)
Length of Visible Light 10h 59m
Length of Day
10h 02m
Waxing Crescent, 41% of the Moon is Illuminated
Nov 19
Waxing Crescent
Nov 20
First Quarter
Nov 28
Full
Dec 6
Last Quarter
Dec 13
New

Hourly Weather History & Observations

Time (CST) Temp. Windchill Dew Point Humidity Pressure Visibility Wind Dir Wind Speed Gust Speed Precip Events Conditions
12:56 AM 51.1 °F - 41.0 °F 68% 30.05 in - SSE 9.2 mph - N/A   Unknown
1:56 AM 50.0 °F - 41.0 °F 71% 30.04 in - SSE 9.2 mph - N/A   Unknown
2:56 AM 48.9 °F - 41.0 °F 74% 30.05 in - SE 8.1 mph - N/A   Unknown
3:56 AM 48.0 °F - 41.0 °F 77% 30.04 in - SE 8.1 mph - N/A   Unknown
4:56 AM 45.0 °F 42.6 °F 39.9 °F 82% 30.04 in - SE 4.6 mph - N/A   Unknown
5:56 AM 44.1 °F - 39.9 °F 85% 30.06 in - Calm Calm - N/A   Unknown
6:56 AM 41.0 °F - 37.9 °F 89% 30.08 in - Calm Calm - N/A   Unknown
7:56 AM 44.1 °F - 39.9 °F 85% 30.12 in - Calm Calm - N/A   Unknown
8:56 AM 48.9 °F - 42.1 °F 77% 30.12 in - Calm Calm - N/A   Unknown
9:56 AM 54.0 °F - 44.1 °F 69% 30.12 in - Calm Calm - N/A   Unknown
10:56 AM 60.1 °F - 48.0 °F 64% 30.12 in - WNW 5.8 mph - N/A   Unknown
11:56 AM 64.9 °F - 46.9 °F 52% 30.11 in - Variable 4.6 mph - N/A   Unknown
12:56 PM 71.1 °F - 45.0 °F 39% 30.08 in - Calm Calm - N/A   Unknown
1:56 PM 73.0 °F - 39.9 °F 30% 30.07 in - NNE 4.6 mph - N/A   Unknown
2:56 PM 73.9 °F - 39.0 °F 28% 30.06 in - NE 4.6 mph - N/A   Unknown
3:56 PM 73.0 °F - 39.9 °F 30% 30.07 in - NNE 6.9 mph - N/A   Unknown
4:56 PM 69.1 °F - 39.9 °F 35% 30.09 in - ENE 4.6 mph - N/A   Unknown
5:56 PM 64.9 °F - 44.1 °F 47% 30.11 in - SSE 3.5 mph - N/A   Unknown
6:56 PM 59.0 °F - 45.0 °F 60% 30.14 in - South 3.5 mph - N/A   Unknown
7:56 PM 53.1 °F - 41.0 °F 64% 30.16 in - Calm Calm - N/A   Unknown
8:56 PM 48.0 °F - 39.0 °F 71% 30.17 in - North 5.8 mph - N/A   Unknown
9:56 PM 48.0 °F - 39.0 °F 71% 30.16 in - NW 3.5 mph - N/A   Unknown
10:56 PM 42.1 °F 39.2 °F 37.0 °F 82% 30.17 in - North 4.6 mph - N/A   Unknown
11:56 PM 42.1 °F 39.2 °F 36.0 °F 79% 30.17 in - North 4.6 mph - N/A   Unknown